| time (UTC) | temp F | wind direction | speed MPH | gust MPH | rain 1hr in | rain 24hr in | rain mn in | humidity % | barometer mb |
| 20260506011815 | 60 | 223 | 8.0 | 0.0 | 0.00 | 0.03 | 0.03 | 59 | 1015.2 |
| 20260506011314 | 60 | 151 | 8.0 | 0.0 | 0.00 | 0.03 | 0.03 | 58 | 1015.2 |
| 20260506010810 | 60 | 115 | 9.0 | 0.0 | 0.00 | 0.03 | 0.03 | 58 | 1015.2 |
| 20260506010342 | 60 | 177 | 9.0 | 0.0 | 0.00 | 0.03 | 0.03 | 58 | 1015.2 |
| 20260506010112 | 60 | 238 | 9.0 | 0.0 | 0.00 | 0.03 | 0.03 | 58 | 1015.2 |
| 20260506005314 | 60 | 259 | 8.0 | 0.0 | 0.00 | 0.03 | 0.03 | 58 | 1015.2 |
| 20260506004740 | 60 | 191 | 12.0 | 0.0 | 0.00 | 0.03 | 0.03 | 58 | 1015.2 |
| 20260506004310 | 60 | 123 | 9.0 | 0.0 | 0.00 | 0.03 | 0.03 | 57 | 1015.2 |
| 20260506003812 | 60 | 108 | 11.0 | 0.0 | 0.00 | 0.03 | 0.03 | 56 | 1015.2 |
| 20260506003314 | 61 | 77 | 12.0 | 0.0 | 0.00 | 0.03 | 0.03 | 56 | 1015.2 |
| 20260506002813 | 61 | 167 | 9.0 | 0.0 | 0.00 | 0.03 | 0.03 | 55 | 1015.2 |
| 20260506002239 | 61 | 150 | 9.0 | 0.0 | 0.00 | 0.03 | 0.03 | 54 | 1015.2 |
| 20260506001814 | 61 | 105 | 9.0 | 0.0 | 0.00 | 0.03 | 0.03 | 54 | 1015.2 |
| 20260506001313 | 61 | 116 | 9.0 | 0.0 | 0.00 | 0.03 | 0.03 | 53 | 1015.2 |
| 20260506000742 | 61 | 153 | 11.0 | 0.0 | 0.00 | 0.03 | 0.03 | 53 | 1015.2 |
| 20260506000311 | 62 | 140 | 12.0 | 0.0 | 0.00 | 0.03 | 0.03 | 53 | 1015.2 |
| 20260505235813 | 62 | 144 | 12.0 | 0.0 | 0.00 | 0.03 | 0.03 | 53 | 1015.2 |
| 20260505235311 | 62 | 174 | 11.0 | 0.0 | 0.00 | 0.03 | 0.03 | 52 | 1015.2 |
| 20260505234814 | 62 | 131 | 9.0 | 0.0 | 0.00 | 0.03 | 0.03 | 52 | 1015.2 |
| 20260505234311 | 63 | 154 | 11.0 | 0.0 | 0.00 | 0.03 | 0.03 | 52 | 1014.9 |
| 20260505233811 | 63 | 251 | 11.0 | 0.0 | 0.00 | 0.03 | 0.03 | 51 | 1014.9 |
| 20260505233313 | 64 | 112 | 9.0 | 0.0 | 0.00 | 0.03 | 0.03 | 51 | 1014.9 |
| 20260505232815 | 65 | 250 | 12.0 | 0.0 | 0.00 | 0.03 | 0.03 | 49 | 1014.9 |
| 20260505232309 | 66 | 306 | 12.0 | 0.0 | 0.00 | 0.03 | 0.03 | 48 | 1014.9 |
| 20260505231812 | 67 | 164 | 11.0 | 0.0 | 0.00 | 0.03 | 0.03 | 46 | 1014.9 |
| 20260505231310 | 67 | 230 | 10.0 | 0.0 | 0.00 | 0.03 | 0.03 | 48 | 1014.9 |
| 20260505230811 | 66 | 133 | 8.0 | 0.0 | 0.00 | 0.03 | 0.03 | 49 | 1014.9 |
| 20260505230314 | 65 | 150 | 9.0 | 0.0 | 0.00 | 0.03 | 0.03 | 50 | 1015.2 |
| 20260505225813 | 64 | 72 | 15.0 | 0.0 | 0.00 | 0.03 | 0.03 | 51 | 1015.2 |
| 20260505225311 | 63 | 124 | 15.0 | 0.0 | 0.00 | 0.03 | 0.03 | 51 | 1015.2 |
| 20260505224811 | 63 | 194 | 11.0 | 0.0 | 0.00 | 0.03 | 0.03 | 51 | 1015.2 |
| 20260505224310 | 64 | 166 | 9.0 | 0.0 | 0.00 | 0.03 | 0.03 | 51 | 1015.2 |
| 20260505223811 | 65 | 171 | 9.0 | 0.0 | 0.00 | 0.03 | 0.03 | 49 | 1015.2 |
| 20260505223238 | 65 | 137 | 9.0 | 0.0 | 0.00 | 0.03 | 0.03 | 50 | 1015.2 |
| 20260505222737 | 64 | 75 | 9.0 | 0.0 | 0.00 | 0.03 | 0.03 | 52 | 1015.2 |
| 20260505222310 | 64 | 200 | 9.0 | 0.0 | 0.00 | 0.03 | 0.03 | 52 | 1015.2 |
| 20260505221811 | 63 | 134 | 8.0 | 0.0 | 0.00 | 0.03 | 0.03 | 53 | 1015.2 |
| 20260505221312 | 63 | 203 | 9.0 | 0.0 | 0.00 | 0.03 | 0.03 | 53 | 1015.2 |
| 20260505220812 | 63 | 119 | 10.0 | 0.0 | 0.00 | 0.03 | 0.03 | 53 | 1015.6 |
| 20260505220313 | 63 | 152 | 9.0 | 0.0 | 0.00 | 0.03 | 0.03 | 53 | 1015.6 |
| 20260505215810 | 63 | 125 | 8.0 | 0.0 | 0.00 | 0.03 | 0.03 | 53 | 1015.6 |
| 20260505215312 | 63 | 135 | 7.0 | 0.0 | 0.00 | 0.03 | 0.03 | 53 | 1015.6 |
| 20260505214811 | 63 | 103 | 6.0 | 0.0 | 0.00 | 0.03 | 0.03 | 53 | 1015.6 |
| 20260505214310 | 63 | 170 | 5.0 | 0.0 | 0.00 | 0.03 | 0.03 | 53 | 1015.6 |
| 20260505213738 | 63 | 88 | 7.0 | 0.0 | 0.00 | 0.03 | 0.03 | 53 | 1015.9 |
| 20260505213242 | 63 | 120 | 7.0 | 0.0 | 0.00 | 0.03 | 0.03 | 53 | 1015.9 |
| 20260505212744 | 63 | 176 | 0.0 | 0.0 | 0.00 | 0.03 | 0.03 | 54 | 1015.9 |
| 20260505212243 | 63 | 255 | 1.0 | 0.0 | 0.00 | 0.03 | 0.03 | 54 | 1015.9 |
| 20260505211812 | 63 | 130 | 0.0 | 0.0 | 0.00 | 0.03 | 0.03 | 53 | 1016.3 |
| 20260505211239 | 63 | 133 | 5.0 | 0.0 | 0.00 | 0.03 | 0.03 | 54 | 1016.3 |
| 20260505210739 | 63 | 134 | 6.0 | 0.0 | 0.00 | 0.03 | 0.03 | 53 | 1016.3 |
| 20260505210243 | 63 | 124 | 8.0 | 0.0 | 0.00 | 0.03 | 0.03 | 53 | 1016.3 |
| 20260505205738 | 65 | 135 | 8.0 | 0.0 | 0.00 | 0.03 | 0.03 | 52 | 1016.3 |
| 20260505205241 | 66 | 114 | 1.0 | 0.0 | 0.00 | 0.03 | 0.03 | 52 | 1016.3 |
| 20260505204743 | 65 | 296 | 4.0 | 0.0 | 0.00 | 0.03 | 0.03 | 53 | 1016.3 |
| 20260505204244 | 64 | 106 | 4.0 | 0.0 | 0.00 | 0.03 | 0.03 | 55 | 1016.3 |
| 20260505203738 | 63 | 75 | 0.0 | 0.0 | 0.00 | 0.03 | 0.03 | 56 | 1016.3 |
| 20260505203239 | 62 | 38 | 2.0 | 0.0 | 0.00 | 0.03 | 0.03 | 57 | 1016.3 |
| 20260505202741 | 62 | 52 | 2.0 | 0.0 | 0.00 | 0.03 | 0.03 | 58 | 1016.3 |
| 20260505202237 | 62 | 107 | 5.0 | 0.0 | 0.00 | 0.03 | 0.03 | 59 | 1016.3 |
| 20260505201742 | 62 | 138 | 6.0 | 0.0 | 0.00 | 0.03 | 0.03 | 58 | 1016.3 |
| 20260505201237 | 62 | 106 | 7.0 | 0.0 | 0.00 | 0.03 | 0.03 | 59 | 1016.3 |
| 20260505200740 | 63 | 148 | 5.0 | 0.0 | 0.00 | 0.03 | 0.03 | 60 | 1016.3 |
| 20260505200240 | 62 | 37 | 5.0 | 0.0 | 0.00 | 0.03 | 0.03 | 60 | 1016.3 |
| 20260505195740 | 61 | 18 | 3.0 | 0.0 | 0.00 | 0.03 | 0.03 | 62 | 1016.3 |
| 20260505195238 | 61 | 143 | 3.0 | 0.0 | 0.00 | 0.03 | 0.03 | 61 | 1016.3 |
| 20260505194741 | 62 | 10 | 4.0 | 0.0 | 0.00 | 0.03 | 0.03 | 61 | 1016.6 |
| 20260505194242 | 61 | 96 | 4.0 | 0.0 | 0.00 | 0.03 | 0.03 | 61 | 1016.6 |
| 20260505193742 | 62 | 179 | 6.0 | 0.0 | 0.00 | 0.03 | 0.03 | 62 | 1016.6 |
| 20260505193241 | 62 | 333 | 6.0 | 0.0 | 0.00 | 0.03 | 0.03 | 63 | 1016.6 |
| 20260505192739 | 62 | 120 | 2.0 | 0.0 | 0.00 | 0.03 | 0.03 | 62 | 1016.6 |
| 20260505192236 | 63 | 121 | 6.0 | 0.0 | 0.00 | 0.03 | 0.03 | 60 | 1016.6 |
| 20260505191738 | 63 | 32 | 3.0 | 0.0 | 0.00 | 0.03 | 0.03 | 61 | 1016.6 |
| 20260505191236 | 62 | 141 | 4.0 | 0.0 | 0.00 | 0.03 | 0.03 | 64 | 1016.6 |
| 20260505190742 | 61 | 342 | 4.0 | 0.0 | 0.00 | 0.03 | 0.03 | 64 | 1016.6 |
| 20260505190248 | 61 | 43 | 4.0 | 0.0 | 0.00 | 0.03 | 0.03 | 64 | 1016.6 |
| 20260505185737 | 61 | 299 | 6.0 | 0.0 | 0.00 | 0.03 | 0.03 | 65 | 1016.6 |
| 20260505185242 | 61 | 170 | 6.0 | 0.0 | 0.00 | 0.03 | 0.03 | 65 | 1016.6 |
| 20260505184740 | 61 | 306 | 0.0 | 0.0 | 0.00 | 0.03 | 0.03 | 62 | 1016.9 |
| 20260505184241 | 61 | 35 | 3.0 | 0.0 | 0.00 | 0.03 | 0.03 | 60 | 1016.9 |
| 20260505183738 | 61 | 194 | 3.0 | 0.0 | 0.00 | 0.03 | 0.03 | 60 | 1016.9 |
| 20260505183239 | 61 | 9 | 1.0 | 0.0 | 0.00 | 0.03 | 0.03 | 62 | 1016.9 |
| 20260505182738 | 60 | 37 | 0.0 | 0.0 | 0.00 | 0.03 | 0.03 | 64 | 1016.9 |
| 20260505182241 | 59 | 53 | 0.0 | 0.0 | 0.00 | 0.03 | 0.03 | 64 | 1016.9 |
| 20260505181742 | 58 | 292 | 0.0 | 0.0 | 0.00 | 0.03 | 0.03 | 65 | 1016.9 |
| 20260505181242 | 58 | 294 | 0.0 | 0.0 | 0.00 | 0.03 | 0.03 | 66 | 1016.9 |
| 20260505180739 | 58 | 337 | 0.0 | 0.0 | 0.00 | 0.03 | 0.03 | 66 | 1016.9 |
| 20260505180239 | 58 | 289 | 0.0 | 0.0 | 0.00 | 0.03 | 0.03 | 67 | 1016.9 |
| 20260505175740 | 58 | 287 | 3.0 | 0.0 | 0.00 | 0.03 | 0.03 | 68 | 1016.9 |
| 20260505175238 | 58 | 241 | 4.0 | 0.0 | 0.00 | 0.03 | 0.03 | 68 | 1016.6 |
| 20260505174737 | 58 | 307 | 6.0 | 0.0 | 0.00 | 0.03 | 0.03 | 67 | 1016.6 |
| 20260505174236 | 59 | 300 | 6.0 | 0.0 | 0.00 | 0.03 | 0.03 | 67 | 1016.6 |
| 20260505173812 | 59 | 305 | 6.0 | 0.0 | 0.00 | 0.03 | 0.03 | 65 | 1016.6 |
| 20260505173513 | 59 | 280 | 6.0 | 0.0 | 0.00 | 0.03 | 0.03 | 66 | 1016.3 |
| 20260505172739 | 59 | 321 | 6.0 | 0.0 | 0.00 | 0.03 | 0.03 | 67 | 1016.3 |
| 20260505172236 | 59 | 327 | 7.0 | 0.0 | 0.00 | 0.03 | 0.03 | 66 | 1016.3 |
| 20260505171734 | 59 | 66 | 3.0 | 0.0 | 0.00 | 0.03 | 0.03 | 65 | 1016.3 |
| 20260505171234 | 60 | 12 | 3.0 | 0.0 | 0.00 | 0.03 | 0.03 | 72 | 1016.3 |
| 20260505170742 | 59 | 275 | 0.0 | 0.0 | 0.00 | 0.03 | 0.03 | 72 | 1016.3 |
| 20260505170241 | 58 | 77 | 6.0 | 0.0 | 0.00 | 0.03 | 0.03 | 71 | 1016.3 |
| 20260505165734 | 57 | 347 | 7.0 | 0.0 | 0.00 | 0.03 | 0.03 | 72 | 1016.3 |
| 20260505165235 | 57 | 92 | 6.0 | 0.0 | 0.00 | 0.03 | 0.03 | 73 | 1016.3 |
| 20260505164734 | 58 | 298 | 0.0 | 0.0 | 0.00 | 0.03 | 0.03 | 74 | 1016.3 |
| 20260505164234 | 57 | 296 | 0.0 | 0.0 | 0.00 | 0.03 | 0.03 | 74 | 1016.3 |
| 20260505163734 | 57 | 279 | 5.0 | 0.0 | 0.00 | 0.03 | 0.03 | 76 | 1016.3 |
| 20260505163334 | 57 | 352 | 8.0 | 0.0 | 0.00 | 0.03 | 0.03 | 78 | 1016.3 |
| 20260505162745 | 57 | 345 | 8.0 | 0.0 | 0.00 | 0.03 | 0.03 | 79 | 1015.9 |
| 20260505162234 | 56 | 320 | 7.0 | 0.0 | 0.00 | 0.03 | 0.03 | 79 | 1015.9 |
| 20260505161735 | 56 | 333 | 5.0 | 0.0 | 0.00 | 0.03 | 0.03 | 79 | 1015.9 |
| 20260505161332 | 56 | 254 | 7.0 | 0.0 | 0.00 | 0.03 | 0.03 | 79 | 1015.9 |
| 20260505160733 | 56 | 314 | 9.0 | 0.0 | 0.00 | 0.03 | 0.03 | 79 | 1015.6 |
| 20260505160232 | 56 | 331 | 9.0 | 0.0 | 0.00 | 0.03 | 0.03 | 78 | 1015.6 |
| 20260505153238 | 56 | 150 | 6.0 | 0.0 | 0.01 | 0.03 | 0.03 | 88 | 1015.6 |
| 20260505152742 | 56 | 332 | 5.0 | 0.0 | 0.01 | 0.03 | 0.03 | 90 | 1015.6 |
| 20260505152241 | 56 | 329 | 5.0 | 0.0 | 0.01 | 0.03 | 0.03 | 91 | 1015.6 |
| 20260505151739 | 54 | 347 | 0.0 | 0.0 | 0.01 | 0.03 | 0.03 | 92 | 1015.6 |
| 20260505151241 | 53 | 344 | 0.0 | 0.0 | 0.01 | 0.03 | 0.03 | 92 | 1015.2 |
| 20260505150734 | 53 | 347 | 0.0 | 0.0 | 0.01 | 0.03 | 0.03 | 92 | 1015.6 |
| 20260505150240 | 52 | 31 | 4.0 | 0.0 | 0.01 | 0.03 | 0.03 | 92 | 1015.6 |
| 20260505140236 | 52 | 135 | 0.0 | 0.0 | 0.00 | 0.02 | 0.02 | 92 | 1014.9 |
| 20260505130240 | 52 | 339 | 0.0 | 0.0 | 0.00 | 0.02 | 0.02 | 91 | 1014.9 |
| 20260505124741 | 52 | 339 | 0.0 | 0.0 | 0.00 | 0.02 | 0.02 | 90 | 1014.6 |
| 20260505124236 | 52 | 315 | 0.0 | 0.0 | 0.00 | 0.02 | 0.02 | 90 | 1014.6 |
| 20260505123729 | 52 | 303 | 0.0 | 0.0 | 0.00 | 0.02 | 0.02 | 90 | 1014.6 |
| 20260505123229 | 52 | 342 | 0.0 | 0.0 | 0.00 | 0.02 | 0.02 | 91 | 1014.6 |
| 20260505122728 | 52 | 248 | 0.0 | 0.0 | 0.00 | 0.02 | 0.02 | 90 | 1014.6 |
| 20260505122242 | 52 | 279 | 0.0 | 0.0 | 0.00 | 0.02 | 0.02 | 91 | 1014.6 |
| 20260505121730 | 52 | 263 | 0.0 | 0.0 | 0.00 | 0.02 | 0.02 | 91 | 1014.6 |
| 20260505121227 | 52 | 210 | 0.0 | 0.0 | 0.00 | 0.02 | 0.02 | 91 | 1014.6 |
| 20260505120726 | 52 | 217 | 0.0 | 0.0 | 0.00 | 0.02 | 0.02 | 91 | 1014.6 |
| 20260505120226 | 52 | 241 | 0.0 | 0.0 | 0.00 | 0.02 | 0.02 | 91 | 1014.6 |
| 20260505115729 | 52 | 221 | 0.0 | 0.0 | 0.00 | 0.02 | 0.02 | 91 | 1014.6 |
| 20260505115226 | 52 | 149 | 0.0 | 0.0 | 0.00 | 0.02 | 0.02 | 91 | 1014.6 |
| 20260505114726 | 52 | 185 | 0.0 | 0.0 | 0.00 | 0.02 | 0.02 | 91 | 1014.6 |
| 20260505114227 | 52 | 275 | 0.0 | 0.0 | 0.00 | 0.02 | 0.02 | 90 | 1014.6 |
| 20260505113727 | 52 | 270 | 0.0 | 0.0 | 0.00 | 0.02 | 0.02 | 90 | 1014.6 |
| 20260505113225 | 51 | 208 | 0.0 | 0.0 | 0.00 | 0.02 | 0.02 | 90 | 1014.9 |
| 20260505112726 | 51 | 287 | 0.0 | 0.0 | 0.00 | 0.02 | 0.02 | 90 | 1014.6 |
| 20260505112226 | 51 | 280 | 0.0 | 0.0 | 0.00 | 0.02 | 0.02 | 90 | 1014.6 |
| 20260505111728 | 51 | 292 | 0.0 | 0.0 | 0.00 | 0.02 | 0.02 | 90 | 1014.9 |
| 20260505111225 | 51 | 292 | 0.0 | 0.0 | 0.00 | 0.02 | 0.02 | 90 | 1014.9 |
| 20260505110726 | 51 | 277 | 0.0 | 0.0 | 0.00 | 0.02 | 0.02 | 90 | 1014.9 |
| 20260505110224 | 51 | 291 | 0.0 | 0.0 | 0.00 | 0.02 | 0.02 | 90 | 1014.9 |
| 20260505101725 | 51 | 251 | 0.0 | 0.0 | 0.01 | 0.02 | 0.02 | 90 | 1014.9 |
| 20260505101240 | 51 | 255 | 0.0 | 0.0 | 0.01 | 0.02 | 0.02 | 89 | 1014.9 |
| 20260505100727 | 51 | 243 | 0.0 | 0.0 | 0.01 | 0.02 | 0.02 | 89 | 1014.9 |
| 20260505100226 | 51 | 216 | 0.0 | 0.0 | 0.01 | 0.02 | 0.02 | 89 | 1014.9 |
| 20260505095739 | 51 | 250 | 0.0 | 0.0 | 0.01 | 0.02 | 0.02 | 89 | 1014.9 |
| 20260505095236 | 51 | 168 | 0.0 | 0.0 | 0.01 | 0.02 | 0.02 | 89 | 1014.9 |
| 20260505094723 | 51 | 191 | 0.0 | 0.0 | 0.00 | 0.01 | 0.01 | 89 | 1015.2 |
| 20260505094240 | 51 | 197 | 0.0 | 0.0 | 0.00 | 0.01 | 0.01 | 89 | 1015.2 |
| 20260505093738 | 51 | 154 | 0.0 | 0.0 | 0.00 | 0.01 | 0.01 | 89 | 1015.2 |
| 20260505093241 | 51 | 268 | 0.0 | 0.0 | 0.00 | 0.01 | 0.01 | 89 | 1015.2 |
| 20260505092742 | 51 | 272 | 0.0 | 0.0 | 0.00 | 0.01 | 0.01 | 89 | 1015.2 |
| 20260505092240 | 51 | 177 | 0.0 | 0.0 | 0.00 | 0.01 | 0.01 | 89 | 1015.2 |
| 20260505091736 | 51 | 156 | 0.0 | 0.0 | 0.00 | 0.01 | 0.01 | 89 | 1015.2 |
| 20260505091240 | 51 | 257 | 0.0 | 0.0 | 0.00 | 0.01 | 0.01 | 89 | 1015.6 |
| 20260505090723 | 51 | 164 | 0.0 | 0.0 | 0.00 | 0.01 | 0.01 | 89 | 1015.6 |
| 20260505090235 | 51 | 159 | 0.0 | 0.0 | 0.00 | 0.01 | 0.01 | 88 | 1015.6 |
| 20260505085737 | 51 | 145 | 0.0 | 0.0 | 0.00 | 0.01 | 0.01 | 88 | 1015.6 |
| 20260505085221 | 52 | 178 | 0.0 | 0.0 | 0.01 | 0.01 | 0.01 | 88 | 1015.6 |
| 20260505084737 | 52 | 97 | 0.0 | 0.0 | 0.01 | 0.01 | 0.01 | 88 | 1015.9 |
| 20260505084239 | 52 | 172 | 0.0 | 0.0 | 0.01 | 0.01 | 0.01 | 88 | 1015.9 |
| 20260505083745 | 52 | 294 | 0.0 | 0.0 | 0.01 | 0.01 | 0.01 | 87 | 1015.9 |
| 20260505083239 | 52 | 182 | 0.0 | 0.0 | 0.01 | 0.01 | 0.01 | 87 | 1016.3 |
| 20260505082721 | 52 | 166 | 0.0 | 0.0 | 0.01 | 0.01 | 0.01 | 87 | 1015.9 |
| 20260505082241 | 52 | 181 | 0.0 | 0.0 | 0.01 | 0.01 | 0.01 | 87 | 1015.9 |
| 20260505081739 | 52 | 289 | 0.0 | 0.0 | 0.01 | 0.01 | 0.01 | 87 | 1016.3 |
| 20260505081239 | 52 | 206 | 0.0 | 0.0 | 0.01 | 0.01 | 0.01 | 87 | 1016.3 |
| 20260505080739 | 52 | 285 | 0.0 | 0.0 | 0.01 | 0.01 | 0.01 | 87 | 1016.3 |
| 20260505080238 | 52 | 316 | 0.0 | 0.0 | 0.01 | 0.01 | 0.01 | 87 | 1016.3 |
| 20260505075738 | 53 | 123 | 0.0 | 0.0 | 0.01 | 0.01 | 0.01 | 87 | 1016.3 |
| 20260505075239 | 53 | 278 | 0.0 | 0.0 | 0.00 | 0.00 | 0.00 | 88 | 1016.3 |
| 20260505074741 | 53 | 44 | 0.0 | 0.0 | 0.00 | 0.00 | 0.00 | 88 | 1016.3 |
| 20260505074242 | 53 | 231 | 0.0 | 0.0 | 0.00 | 0.00 | 0.00 | 88 | 1016.3 |
| 20260505073736 | 53 | 211 | 0.0 | 0.0 | 0.00 | 0.00 | 0.00 | 87 | 1016.6 |
| 20260505073241 | 53 | 339 | 0.0 | 0.0 | 0.00 | 0.00 | 0.00 | 88 | 1016.6 |
| 20260505072737 | 53 | 192 | 0.0 | 0.0 | 0.00 | 0.00 | 0.00 | 88 | 1016.3 |
| 20260505072242 | 53 | 294 | 0.0 | 0.0 | 0.00 | 0.00 | 0.00 | 87 | 1016.3 |
| 20260505071739 | 53 | 314 | 0.0 | 0.0 | 0.00 | 0.00 | 0.00 | 87 | 1016.3 |
| 20260505071237 | 53 | 4 | 0.0 | 0.0 | 0.00 | 0.00 | 0.00 | 86 | 1016.3 |
| 20260505070738 | 53 | 294 | 3.0 | 0.0 | 0.00 | 0.00 | 0.00 | 86 | 1016.3 |
| 20260505070219 | 53 | 338 | 3.0 | 0.0 | 0.00 | 0.00 | 0.00 | 86 | 1016.3 |
| 20260505065737 | 53 | 326 | 4.0 | 0.0 | 0.00 | 0.00 | 0.00 | 85 | 1016.3 |
| 20260505065243 | 53 | 311 | 4.0 | 0.0 | 0.00 | 0.00 | 0.00 | 83 | 1016.3 |
| 20260505064739 | 54 | 319 | 3.0 | 0.0 | 0.00 | 0.00 | 0.00 | 83 | 1016.3 |
| 20260505064238 | 54 | 307 | 0.0 | 0.0 | 0.00 | 0.00 | 0.00 | 82 | 1016.6 |
| 20260505063738 | 54 | 320 | 5.0 | 0.0 | 0.00 | 0.00 | 0.00 | 82 | 1016.6 |
| 20260505063240 | 54 | 112 | 5.0 | 0.0 | 0.00 | 0.00 | 0.00 | 81 | 1016.6 |
| 20260505062741 | 54 | 131 | 5.0 | 0.0 | 0.00 | 0.00 | 0.00 | 80 | 1016.3 |
| 20260505062238 | 55 | 6 | 7.0 | 0.0 | 0.00 | 0.00 | 0.00 | 79 | 1016.3 |
| 20260505061737 | 55 | 105 | 4.0 | 0.0 | 0.00 | 0.00 | 0.00 | 78 | 1016.3 |
| 20260505061219 | 55 | 176 | 2.0 | 0.0 | 0.00 | 0.00 | 0.00 | 76 | 1016.6 |
| 20260505060737 | 55 | 279 | 8.0 | 0.0 | 0.00 | 0.00 | 0.00 | 76 | 1016.6 |
| 20260505060238 | 56 | 14 | 7.0 | 0.0 | 0.00 | 0.00 | 0.00 | 75 | 1016.6 |
| 20260505055736 | 55 | 127 | 0.0 | 0.0 | 0.00 | 0.00 | 0.00 | 75 | 1016.6 |
| 20260505055237 | 56 | 312 | 0.0 | 0.0 | 0.00 | 0.00 | 0.00 | 75 | 1016.6 |
| 20260505054740 | 55 | 271 | 1.0 | 0.0 | 0.00 | 0.00 | 0.00 | 76 | 1016.6 |
| 20260505054243 | 56 | 206 | 1.0 | 0.0 | 0.00 | 0.00 | 0.00 | 76 | 1016.6 |
| 20260505053735 | 56 | 328 | 0.0 | 0.0 | 0.00 | 0.00 | 0.00 | 76 | 1016.6 |
| 20260505053236 | 56 | 321 | 4.0 | 0.0 | 0.00 | 0.00 | 0.00 | 76 | 1016.6 |
| 20260505052735 | 56 | 302 | 4.0 | 0.0 | 0.00 | 0.00 | 0.00 | 75 | 1016.6 |
| 20260505052240 | 56 | 358 | 4.0 | 0.0 | 0.00 | 0.00 | 0.00 | 74 | 1016.6 |
| 20260505051719 | 56 | 340 | 0.0 | 0.0 | 0.00 | 0.00 | 0.00 | 72 | 1016.6 |
| 20260505051319 | 56 | 350 | 0.0 | 0.0 | 0.00 | 0.00 | 0.00 | 71 | 1016.6 |
| 20260505050741 | 57 | 294 | 5.0 | 0.0 | 0.00 | 0.00 | 0.00 | 70 | 1016.6 |
| 20260505050240 | 57 | 334 | 5.0 | 0.0 | 0.00 | 0.00 | 0.00 | 69 | 1016.6 |
| 20260505041735 | 58 | 69 | 7.0 | 0.0 | 0.00 | 0.00 | 0.00 | 66 | 1016.3 |
| 20260505041235 | 58 | 28 | 6.0 | 0.0 | 0.00 | 0.00 | 0.00 | 66 | 1016.3 |
| 20260505040719 | 58 | 15 | 6.0 | 0.0 | 0.00 | 0.00 | 0.00 | 66 | 1016.3 |
| 20260505040245 | 58 | 333 | 6.0 | 0.0 | 0.00 | 0.00 | 0.00 | 65 | 1016.3 |
| 20260505035742 | 58 | 18 | 6.0 | 0.0 | 0.00 | 0.00 | 0.00 | 65 | 1016.3 |
| 20260505035237 | 59 | 225 | 4.0 | 0.0 | 0.00 | 0.00 | 0.00 | 64 | 1016.3 |
| 20260505034742 | 59 | 115 | 0.0 | 0.0 | 0.00 | 0.00 | 0.00 | 64 | 1016.3 |
| 20260505034242 | 59 | 329 | 0.0 | 0.0 | 0.00 | 0.00 | 0.00 | 63 | 1015.9 |
| 20260505033715 | 59 | 228 | 0.0 | 0.0 | 0.00 | 0.00 | 0.00 | 63 | 1015.9 |
| 20260505033217 | 59 | 31 | 0.0 | 0.0 | 0.00 | 0.00 | 0.00 | 63 | 1015.9 |
| 20260505032738 | 59 | 12 | 6.0 | 0.0 | 0.00 | 0.00 | 0.00 | 62 | 1015.9 |
| 20260505032214 | 59 | 140 | 6.0 | 0.0 | 0.00 | 0.00 | 0.00 | 62 | 1015.9 |
| 20260505031715 | 59 | 96 | 8.0 | 0.0 | 0.00 | 0.00 | 0.00 | 62 | 1015.9 |
| 20260505031240 | 59 | 97 | 0.0 | 0.0 | 0.00 | 0.00 | 0.00 | 62 | 1015.6 |
| 20260505030814 | 59 | 308 | 0.0 | 0.0 | 0.00 | 0.00 | 0.00 | 62 | 1015.6 |
| 20260505030515 | 59 | 206 | 0.0 | 0.0 | 0.00 | 0.00 | 0.00 | 62 | 1015.6 |
| 20260505025714 | 59 | 85 | 0.0 | 0.0 | 0.00 | 0.00 | 0.00 | 62 | 1015.6 |
| 20260505025237 | 59 | 197 | 0.0 | 0.0 | 0.00 | 0.00 | 0.00 | 61 | 1015.6 |
| 20260505024740 | 59 | 314 | 2.0 | 0.0 | 0.00 | 0.00 | 0.00 | 61 | 1015.2 |
| 20260505024213 | 60 | 344 | 4.0 | 0.0 | 0.00 | 0.00 | 0.00 | 60 | 1015.2 |
| 20260505023714 | 60 | 2 | 8.0 | 0.0 | 0.00 | 0.00 | 0.00 | 60 | 1015.2 |
| 20260505023241 | 60 | 335 | 9.0 | 0.0 | 0.00 | 0.00 | 0.00 | 59 | 1015.2 |
| 20260505022742 | 60 | 336 | 8.0 | 0.0 | 0.00 | 0.00 | 0.00 | 59 | 1015.2 |
| 20260505022238 | 60 | 291 | 7.0 | 0.0 | 0.00 | 0.00 | 0.00 | 58 | 1015.2 |
| 20260505021742 | 61 | 234 | 7.0 | 0.0 | 0.00 | 0.00 | 0.00 | 57 | 1015.2 |
| 20260505021245 | 61 | 242 | 7.0 | 0.0 | 0.00 | 0.00 | 0.00 | 57 | 1015.2 |
| 20260505020743 | 61 | 275 | 7.0 | 0.0 | 0.00 | 0.00 | 0.00 | 57 | 1015.2 |
| 20260505020241 | 61 | 325 | 8.0 | 0.0 | 0.00 | 0.00 | 0.00 | 56 | 1015.2 |
| 20260505015743 | 61 | 302 | 5.0 | 0.0 | 0.00 | 0.00 | 0.00 | 56 | 1015.2 |
| 20260505015241 | 62 | 62 | 7.0 | 0.0 | 0.00 | 0.00 | 0.00 | 55 | 1015.2 |
| 20260505014736 | 62 | 36 | 7.0 | 0.0 | 0.00 | 0.00 | 0.00 | 55 | 1015.2 |
| 20260505014238 | 62 | 314 | 6.0 | 0.0 | 0.00 | 0.00 | 0.00 | 55 | 1015.2 |
| 20260505013738 | 62 | 5 | 7.0 | 0.0 | 0.00 | 0.00 | 0.00 | 55 | 1015.2 |
| 20260505013514 | 62 | 332 | 15.0 | 0.0 | 0.00 | 0.00 | 0.00 | 55 | 1015.2 |
| 20260505012740 | 63 | 286 | 10.0 | 0.0 | 0.00 | 0.00 | 0.00 | 54 | 1015.2 |
| 20260505012238 | 63 | 325 | 8.0 | 0.0 | 0.00 | 0.00 | 0.00 | 53 | 1015.2 |